SCP
1 2 3 3 2 2 1 1 1 1 1 1 2 3 3 4 4 4 3 3 3 2 2 2 1 1 1 1 1 0 0 0 0 0 0 0 0 0 0 0 0 0 0
1 2 3 3 2 2 2 1 1 1 1 1 2 2 3 3 3 3 3 3 3 3 3 2 1 1 1 1 1 0 0 0 0 0 0 0 0 0 0 0 0 0 0
1 1 2 2 2 2 2 2 2 2 1 1 2 2 2 3 2 2 2 2 2 2 2 2 1 1 1 1 1 0 0 0 0 0 0 0 0 0 0 0 0 0 0
0 0 1 1 2 3 3 3 2 2 2 2 2 2 2 2 2 2 1 1 1 1 1 1 1 1 1 0 0 0 0 0 0 0 0 0 0 0 0 0 0 0 0
0 0 0 1 2 3 3 3 3 2 2 2 2 2 2 2 2 1 1 1 1 1 1 0 0 0 0 0 0 0 0 0 0 0 0 0 0 0 0 0 0 0 0
0 0 0 1 1 2 3 3 3 2 2 2 2 3 3 2 2 1 1 1 1 1 1 0 0 0 0 0 0 0 0 0 0 0 0 0 0 0 0 0 0 0 0
0 0 0 0 0 1 2 2 2 2 2 2 3 3 3 2 1 1 1 1 1 1 1 1 0 0 0 0 0 0 0 0 0 0 0 0 0 0 0 0 0 0 0
0 0 1 0 0 0 1 1 1 1 2 2 2 3 3 2 1 0 0 1 1 1 1 0 0 0 0 0 0 0 0 0 0 0 0 0 0 0 0 0 0 0 0
0 0 1 1 0 0 0 0 1 1 2 2 2 3 3 2 1 0 0 1 1 1 1 0 0 0 0 0 0 0 0 0 0 0 0 0 0 0 0 0 0 0 0
1 1 1 1 0 0 0 0 1 2 2 2 2 2 2 1 1 0 1 1 1 1 1 0 0 0 0 0 0 0 0 0 0 0 0 0 0 0 0 0 0 0 0
1 1 1 0 0 0 0 1 1 1 2 2 2 2 2 1 0 0 1 1 1 1 0 0 0 0 0 0 0 0 0 0 0 0 0 0 0 0 0 0 0 0 0
0 0 0 0 1 1 1 1 1 1 1 2 2 2 1 0 0 0 0 1 1 1 0 0 0 0 0 0 0 0 0 0 0 0 0 0 0 0 0 0 0 0 0
0 0 0 0 0 1 1 1 1 1 1 1 2 1 1 0 0 0 0 0 0 0 0 0 0 0 0 0 0 0 0 0 0 0 0 0 0 0 0 0 0 0 0
0 0 0 0 0 0 0 0 0 0 1 1 1 1 1 0 0 0 0 0 0 0 0 0 0 0 0 0 0 0 0 0 0 0 0 0 0 0 0 0 0 0 0
0 0 0 0 0 0 0 0 0 0 0 0 0 1 1 1 0 0 0 0 0 0 0 0 0 0 0 0 0 0 0 0 0 0 0 0 0 0 0 0 0 0 0
0 0 0 0 0 0 0 0 0 0 0 0 0 0 0 0 0 0 0 0 0 0 0 0 0 0 0 0 0 0 0 0 0 0 0 0 0 0 0 0 0 0 0
0 0 0 0 0 0 0 0 0 0 0 0 0 0 0 0 0 0 0 0 0 0 0 0 0 0 0 0 0 0 0 0 0 0 0 0 0 0 0 0 0 0 0
0 0 0 0 0 0 0 0 0 0 0 0 0 0 0 0 0 0 0 0 0 0 0 0 0 0 0 0 0 0 0 0 0 0 0 0 0 0 0 0 0 0 0
0 0 0 0 0 0 0 0 0 0 0 0 0 0 0 0 0 0 0 0 0 0 0 0 0 0 0 0 0 0 0 0 0 0 0 0 0 0 0 0 0 0 0
0 0 0 0 0 0 0 0 0 0 0 0 0 0 0 0 0 0 0 0 0 0 0 0 0 0 0 0 0 0 0 0 0 0 0 0 0 0 0 0 0 0 0
0 0 0 0 0 0 0 0 0 0 0 0 0 0 0 0 0 0 0 0 0 0 0 0 0 0 0 0 0 0 0 0 0 0 0 0 0 0 0 0 0 0 0
1 0 0 0 0 0 0 0 0 0 0 0 0 0 0 0 0 0 0 0 0 0 0 0 0 0 0 0 0 0 0 0 0 0 0 0 0 0 0 0 0 0 0
1 1 0 0 0 0 0 0 0 0 0 0 0 0 0 0 0 0 0 0 0 0 0 0 0 0 0 0 0 0 0 0 0 0 0 0 0 0 0 0 0 0 0
1 1 0 0 0 0 0 0 0 0 0 0 0 0 0 0 0 0 0 0 0 0 0 0 0 0 0 0 0 0 0 0 0 0 0 0 0 0 0 0 0 0 0
0 0 0 0 0 0 0 0 0 0 0 0 0 0 0 0 0 0 0 0 0 0 0 0 0 0 0 0 0 0 0 0 0 0 0 0 0 0 0 0 0 0 0
0 0 0 0 0 0 0 0 0 0 0 0 0 0 0 0 0 0 0 0 0 0 0 0 0 0 0 0 0 0 0 0 0 0 0 0 0 0 0 0 0 0 0
Wind_Speed
2 2 2 2 2 2 2 1 1 1 1 1 2 2 2 2 2 1 2 2 2 3 2 2 4 3 2 2 2 2 2 2 4 5 4 4 4 5 5 4 5 5 5
2 2 2 2 2 2 2 1 1 1 1 1 1 1 2 2 2 2 3 2 3 3 3 3 4 3 3 3 2 3 3 3 4 6 5 4 5 5 4 5 5 4 4
2 2 2 1 2 2 2 1 1 1 1 1 1 1 1 1 2 2 2 3 3 3 4 4 4 3 3 3 3 3 3 4 3 4 6 4 4 3 3 4 4 4 5
2 2 2 2 2 2 1 1 1 1 1 1 1 1 1 1 2 2 2 2 3 3 3 3 3 3 4 4 3 4 4 4 4 4 5 4 4 4 2 3 4 3 4
2 2 2 2 1 1 1 1 1 1 1 1 1 1 1 1 1 1 2 2 2 3 3 3 3 4 4 4 4 4 3 3 4 4 4 4 4 3 3 3 4 4 4
2 2 2 2 1 1 1 1 1 1 1 0 1 1 1 2 2 3 2 2 2 2 3 4 4 4 4 5 6 6 5 5 5 4 4 5 6 5 4 3 3 2 4
2 2 2 2 2 2 1 1 1 1 0 1 1 1 1 3 3 4 4 2 2 2 2 3 4 4 4 4 6 7 7 7 7 5 5 7 6 5 4 4 4 4 5
2 2 2 2 2 1 1 1 1 0 0 1 1 0 1 3 4 4 4 2 2 3 3 3 3 5 5 4 4 5 6 6 6 4 5 7 6 5 4 5 5 5 4
1 2 2 2 2 1 1 1 1 0 0 1 1 1 1 3 4 4 4 2 2 4 4 4 3 4 7 6 3 5 7 7 7 6 7 8 9 9 6 2 3 2 4
2 2 2 2 2 2 1 1 1 1 0 1 1 1 1 2 4 4 3 1 2 3 4 4 5 5 7 5 2 3 5 6 6 7 7 7 6 6 6 3 3 3 3
1 1 1 1 2 2 1 1 0 0 1 1 1 2 2 2 3 4 3 1 1 3 3 4 4 8 8 7 5 3 5 5 4 4 4 5 4 4 4 4 3 3 3
1 1 1 1 1 1 1 0 0 1 1 1 2 3 3 2 2 3 4 3 2 1 3 4 5 8 9 8 5 5 6 4 2 3 3 4 4 4 4 4 4 4 4
1 1 0 0 0 0 1 1 0 0 0 1 1 2 3 2 3 3 4 5 5 2 3 6 8 8 7 5 6 7 5 2 2 2 3 4 4 4 4 4 4 4 4
1 0 0 1 0 1 1 0 0 1 1 1 1 2 2 2 2 2 3 3 4 4 4 6 7 6 5 5 5 4 3 2 2 2 3 4 4 4 3 3 3 3 3
0 1 0 1 1 0 0 0 1 2 3 3 2 2 2 2 4 2 1 2 2 3 3 3 3 3 4 4 3 3 3 3 3 3 3 4 4 4 4 4 3 2 2
0 1 0 0 1 1 0 1 2 2 3 3 4 3 2 3 3 3 4 4 4 3 2 2 3 3 3 3 3 4 3 3 3 3 3 3 4 4 4 4 3 3 3
1 1 1 1 1 1 1 1 2 3 4 3 3 3 3 3 3 3 4 4 4 3 2 2 2 2 3 3 3 3 3 3 3 3 3 4 4 4 4 4 4 4 4
1 2 2 2 2 2 2 2 1 1 1 3 4 4 4 3 3 3 3 3 3 3 2 2 2 2 2 3 3 3 3 4 3 3 4 4 4 4 4 4 4 4 4
1 1 1 1 1 1 1 1 1 1 1 1 2 3 3 2 2 2 2 1 1 2 2 2 2 2 2 2 3 3 3 3 4 4 4 5 4 4 4 4 4 6 5
1 2 2 1 1 0 0 0 0 1 1 1 1 2 1 2 1 2 1 1 1 1 2 2 2 2 2 2 2 3 3 3 4 4 4 4 4 4 4 5 5 5 4
1 2 2 1 1 1 1 1 1 1 1 1 2 2 1 1 1 1 1 1 1 1 1 1 1 2 2 2 2 3 3 3 3 4 4 5 5 4 4 4 4 4 4
1 1 1 1 1 1 1 1 1 1 1 1 1 1 1 1 0 0 0 1 1 1 0 0 1 1 1 2 2 3 3 4 4 4 5 5 5 5 5 4 4 4 4
1 1 2 2 1 1 1 0 1 1 1 1 1 0 1 0 0 0 0 1 1 1 1 1 1 1 2 2 2 2 3 3 4 4 4 5 5 5 4 5 5 5 5
1 1 1 1 1 0 1 1 1 1 1 1 0 1 1 1 0 0 0 0 1 1 1 1 1 2 3 3 2 2 2 3 4 4 4 4 5 5 4 4 5 5 5
1 1 1 1 1 1 1 1 1 1 1 1 1 1 1 1 1 0 0 1 1 1 2 2 2 2 3 4 4 4 4 5 5 4 4 3 4 5 4 5 4 4 4
1 1 1 1 1 1 1 2 1 1 1 1 1 1 1 1 1 0 0 1 1 1 1 1 2 3 3 3 4 5 6 6 6 6 4 3 4 4 5 4 5 4 4
Wind_Direction
178 173 160 165 166 162 160 177 182 191 198 215 226 228 236 244 248 242 254 252 249 261 264 258 265 260 260 263 254 250 242 216 255 276 265 271 272 280 289 273 266 255 256
171 155 161 160 148 160 174 193 178 188 222 229 233 238 240 238 243 234 250 258 249 256 262 262 267 267 263 260 255 257 254 239 233 273 286 284 275 275 274 276 276 265 257
149 144 145 141 154 172 187 206 207 213 234 241 215 226 257 270 266 254 246 255 260 258 258 258 261 261 267 266 261 259 261 267 244 254 277 279 277 282 292 288 281 276 272
149 151 160 175 186 190 189 201 218 220 217 254 249 245 254 273 271 274 276 280 287 287 281 266 261 255 255 265 271 265 266 272 269 264 272 280 276 281 279 282 294 286 281
142 147 178 186 183 168 172 200 232 236 230 235 264 292 296 274 278 304 294 297 294 299 299 286 275 269 264 266 269 265 265 268 276 275 275 279 282 288 276 259 277 289 286
142 161 178 174 166 166 192 214 243 258 270 312 312 343 347 334 339 330 315 293 296 295 302 307 301 292 300 300 292 284 269 260 265 264 266 271 274 271 269 270 267 286 288
163 177 181 176 167 192 195 174 236 259 302 334 326 26 341 321 328 328 328 317 298 293 290 295 306 311 309 307 309 311 302 283 260 244 256 263 263 264 265 275 269 258 257
169 180 177 170 177 186 159 190 251 272 345 326 319 289 320 324 334 336 331 328 311 297 287 278 289 303 305 307 309 316 309 305 293 269 251 260 264 265 252 253 259 270 274
175 191 184 167 161 158 169 233 230 142 342 314 288 274 322 317 329 335 342 333 324 312 305 301 297 302 308 320 324 314 314 311 312 308 289 281 279 276 273 272 277 273 288
207 196 172 157 156 174 196 212 200 148 227 303 324 305 289 301 321 337 353 356 331 318 319 315 309 312 320 329 319 304 303 300 313 323 323 320 309 297 289 249 239 251 266
199 138 125 153 175 189 184 176 141 77 30 360 332 314 305 296 318 342 350 3 306 312 315 317 315 324 328 328 320 282 279 291 305 310 313 316 318 314 302 287 255 234 249
114 107 115 170 184 157 150 187 73 95 34 326 336 325 318 322 323 328 341 346 330 296 296 302 307 318 322 323 326 324 323 327 329 335 335 326 321 316 308 301 292 276 253
93 90 143 176 176 144 150 184 318 355 263 292 318 309 310 320 317 329 347 346 343 321 297 306 315 321 327 334 344 345 348 356 354 344 325 308 298 296 304 315 316 313 309
85 274 223 144 40 4 18 143 181 265 262 261 245 265 288 306 314 334 347 346 350 349 334 326 329 340 358 354 351 352 353 345 335 315 309 309 318 326 323 320 316 324 327
29 277 220 155 184 213 11 294 236 242 221 211 226 219 225 272 279 290 332 325 319 315 331 350 2 1 1 354 345 339 341 351 346 331 326 327 329 330 324 323 320 323 321
326 301 274 236 227 199 190 340 340 290 286 240 223 217 237 241 282 320 335 339 338 341 35 10 347 343 341 337 334 333 335 333 326 325 327 327 330 331 327 328 331 327 316
225 266 273 241 229 221 204 225 307 337 352 338 290 269 265 286 308 323 338 349 354 17 37 350 331 328 327 328 328 328 328 324 328 336 337 332 330 328 329 331 333 331 324
265 253 262 256 226 212 207 221 215 218 308 321 317 302 299 301 308 322 350 23 8 9 360 331 325 326 330 334 337 337 333 336 344 340 335 332 331 329 330 329 328 327 323
283 275 282 289 261 211 205 218 222 223 234 268 310 324 324 336 1 4 40 59 349 331 330 324 320 328 335 340 342 342 338 337 339 335 332 330 329 328 326 326 326 328 328
306 298 295 275 270 252 247 231 244 243 236 240 257 270 320 45 24 348 355 341 335 319 327 331 335 346 341 337 337 340 344 343 341 338 333 331 330 329 328 328 330 330 328
300 315 306 288 243 220 218 216 210 209 216 228 249 260 180 150 194 269 309 323 317 314 324 344 350 352 349 342 342 347 350 342 335 331 329 327 327 327 325 323 324 327 329
274 290 284 261 248 239 228 220 199 190 195 209 269 302 174 125 146 252 316 314 306 295 265 110 7 353 349 350 353 355 349 340 336 333 328 325 325 324 323 323 323 326 328
275 287 292 285 264 259 252 206 167 173 188 214 198 145 123 173 208 151 306 318 341 1 2 52 30 2 3 8 11 3 343 328 320 317 320 324 326 325 322 322 325 329 329
273 277 267 275 275 232 221 213 208 194 188 201 185 167 168 178 150 79 34 24 29 31 30 42 32 25 23 11 360 354 340 321 314 309 312 313 319 321 325 330 331 333 334
267 273 256 244 235 222 208 202 208 198 192 200 191 173 163 142 119 88 62 65 61 56 46 43 33 29 22 10 4 350 336 331 330 324 317 316 320 324 328 331 331 333 339
271 279 270 242 219 205 193 195 203 195 202 214 187 165 153 143 134 127 86 73 72 70 57 43 32 27 20 8 358 348 342 342 342 340 332 326 331 335 337 335 338 344 348